Location: Plymouth
(43.7570°N, 71.6890°W)
Time: 12:07:14
(UTC-04:00)

Daily predictions for brighter satellites

Satellite Brightness Start Highest point End
(mag) Time Altitude Azimuth Time Altitude Azimuth Time Altitude Azimuth
Cosmos 2263 Rocket 3.7 20:38:50 10° SW 20:44:13 44° WNW 20:49:36 10° NNE
Meteor 2-10 Rocket 3.8 20:38:58 10° N 20:44:50 89° E 20:50:32 10° S
Meteor 2-3 Rocket 4.2 20:43:56 10° SSW 20:49:31 68° WNW 20:55:06 10° N
SL-08 ROCKET BODY 4.4 20:46:21 10° S 20:52:21 71° E 20:58:15 10° NNE
Meteor 1-27 Rocket 3.9 20:55:20 10° N 21:00:48 53° ENE 21:06:10 10° SSE
CENTAUR R/B 3.7 20:54:00 10° NW 21:01:39 56° WSW 21:09:42 10° SSE
Cosmos 1975 Rocket 4.2 20:58:32 10° NNE 21:02:11 26° ENE 21:05:39 11° SE
Cosmos 1356 Rocket 4.0 20:58:24 10° SSW 21:02:35 66° W 21:06:53 10° N
Coronas F rocket 2.6 21:01:57 10° SSW 21:04:28 42° W 21:07:02 10° N
Cosmos 1184 Rocket 4.2 21:05:38 11° SE 21:08:09 22° E 21:10:48 10° NE
Cosmos 676 Rocket 4.1 21:03:50 10° NNW 21:09:00 63° ENE 21:14:07 10° SSE
CZ-4 SHROUD 4.2 21:08:53 13° SE 21:11:15 30° ENE 21:14:02 10° N
Cosmos 1606 2.9 21:07:36 10° N 21:11:31 59° E 21:15:23 10° SSE
ALOS 4.3 21:08:53 10° SSW 21:12:50 27° W 21:16:49 10° NW
Cosmos 1174 3.3 21:09:39 10° NNW 21:12:58 64° NE 21:15:21 15° SE
Cosmos 1908 Rocket 3.7 21:08:56 10° S 21:13:13 55° E 21:17:34 10° NNE
Cosmos 2056 Rocket 3.8 21:08:52 10° SSW 21:14:00 71° WNW 21:19:08 10° NNE
Cosmos 1782 3.0 21:09:58 10° NNW 21:14:01 75° W 21:18:02 10° S
Cosmos 1954 Rocket 4.3 21:09:22 10° NNW 21:14:30 55° ENE 21:19:08 13° SE
deb Chang Zheng 4 3.6 21:10:20 10° NNE 21:14:45 69° ESE 21:19:10 10° S
Cosmos 1378 Rocket 3.7 21:11:29 10° N 21:15:44 54° ENE 21:19:45 11° SSE
Cosmos 1733 Rocket 3.6 21:11:59 10° SSW 21:16:21 61° W 21:20:43 10° N
Cosmos 2154 Rocket 4.0 21:10:30 10° S 21:16:37 62° E 21:22:44 10° NNE
Cosmos 1892 4.3 21:15:41 10° SSW 21:19:16 38° WNW 21:22:55 10° N
PSLV R/B 3.6 21:17:56 15° SE 21:20:03 42° ENE 21:22:52 10° N
NOSS 2-2 (D) 4.3 21:16:42 10° SW 21:20:49 59° NW 21:25:42 10° NNE
Cosmos 2084 3.6 21:17:53 10° S 21:21:30 39° ESE 21:25:06 10° NE
Cosmos 1939 Rocket 3.2 21:19:40 10° S 21:23:31 63° W 21:27:25 10° NNW
USA 245 4.0 21:23:31 17° SE 21:25:35 33° ENE 21:29:13 10° N
Nimbus 7 Rocket 4.4 21:19:57 10° NNE 21:25:55 74° ESE 21:31:53 10° S
Cosmos 1238 Rocket 2.5 21:23:47 10° N 21:26:56 56° E 21:29:42 16° SSE
COS B Rocket 3.2 21:24:58 10° N 21:29:09 80° E 21:32:54 10° S
STPSAT 2 (USA 217) 4.5 21:26:04 10° SSW 21:30:33 78° ESE 21:35:03 10° NNE
MetOp-B 4.2 21:25:52 12° SSE 21:30:49 71° ENE 21:36:10 10° N
SL-27 R/B 4.1 21:28:19 10° NW 21:31:38 32° WSW 21:34:52 10° SSW
SPOT 5 3.1 21:27:04 10° SSE 21:32:20 87° ENE 21:37:44 10° NNW
BREEZE-M DEB 4.4 21:28:18 10° SW 21:32:47 60° SSE 21:35:40 10° ENE
Terra 3.5 21:30:09 12° ESE 21:32:52 19° ENE 21:36:13 10° NNE
SL-8 R/B 4.1 21:29:27 10° WSW 21:34:15 68° NNW 21:39:04 10° ENE
ISS -2.8 21:31:23 10° SSW 21:34:23 36° SE 21:37:25 10° ENE
H-2A R/B 2.9 21:38:52 10° S 21:43:02 48° W 21:47:10 10° NNW
COSMOS 2487 2.4 21:41:15 10° NNW 21:44:53 88° ENE 21:47:00 23° SSE
ARGOS 3.3 21:42:25 18° SE 21:46:16 60° ENE 21:51:32 10° N
APEX 4.1 21:44:24 21° SSE 21:46:30 35° ESE 21:50:59 10° NE
ATLAS 5 CENTAUR R/B 3.9 21:41:25 10° WNW 21:46:34 29° WSW 21:51:57 10° S
SL-08 RB Rocket 4.1 21:45:08 21° SE 21:47:53 49° ENE 21:52:22 10° N
Envisat 3.9 21:43:51 10° S 21:48:44 48° W 21:53:39 10° NNW
BREEZE-M DEB (TANK) 3.5 21:42:51 10° WNW 21:55:58 78° SSW 21:58:22 26° SE
Cosmos 1420 Rocket 3.9 21:54:27 10° S 21:59:39 68° ESE 22:04:51 10° NNE
Intercosmos 25 2.9 21:57:44 23° S 21:59:48 68° E 22:02:56 10° NNE
Cosmos 1833 Rocket 3.3 21:59:57 10° NNW 22:05:20 44° ENE 22:08:17 24° ESE
Cosmos 2278 Rocket 2.3 22:00:14 10° SSW 22:05:54 82° WNW 22:11:38 10° NNE
H-2A R/B 2.6 22:03:38 25° SE 22:06:25 48° ENE 22:11:30 10° N
Meteor 1-14 Rocket 4.2 22:03:33 19° S 22:07:36 62° E 22:13:08 10° NNE
Cosmos 614 Rocket 3.9 22:02:58 10° NNW 22:08:04 72° ENE 22:10:37 29° SSE
YAOGAN 6 3.4 22:06:45 20° SSW 22:08:50 45° W 22:12:15 10° NNW
Cosmos 1825 3.3 22:05:24 10° SSW 22:09:03 43° WNW 22:12:44 10° N
Okean 2 Rocket 3.2 22:05:29 13° SSW 22:09:23 76° W 22:13:49 10° N
Cosmos 1408 3.9 22:07:30 10° SSW 22:10:59 40° WNW 22:14:27 10° N
Cosmos 1844 Rocket 4.2 22:06:37 10° SW 22:11:52 39° WNW 22:17:09 10° NNE
Cosmos 2218 Rocket 4.1 22:07:31 19° S 22:12:11 66° E 22:18:32 10° NNE
BREEZE-M DEB (TANK) 4.3 22:10:33 10° W 22:13:38 50° N 22:22:23 10° ENE
Cosmos 1242 Rocket 3.0 22:11:58 10° NNW 22:15:34 59° W 22:17:13 29° SSW
Cosmos 1140 Rocket 3.7 22:10:37 10° NNW 22:15:43 65° WSW 22:18:40 25° S
SPOT 1/Viking Rocket 3.9 22:18:19 21° S 22:21:45 60° W 22:26:55 10° NNW
USA 234 3.5 22:16:00 10° ENE 22:22:12 44° SE 22:28:21 10° SSW
CZ-4 R/B 3.7 22:19:24 10° NNE 22:24:07 87° ESE 22:26:53 24° SSW
Cosmos 2082 Rocket 2.2 22:18:48 10° NNW 22:24:32 76° ENE 22:27:07 34° SE
Cosmos 1727 Rocket 4.0 22:20:29 10° N 22:26:38 69° E 22:29:40 32° SSE
DELTA 2 DEB (DPAF) 4.1 22:25:13 39° SSE 22:26:54 82° ENE 22:31:23 10° NNW
CZ-4B R/B 3.7 22:22:55 10° N 22:27:52 67° WNW 22:32:07 13° SSW
Cosmos 1812 3.3 22:24:18 10° N 22:28:00 40° ENE 22:28:24 39° E
Cosmos 1959 Rocket 4.4 22:26:11 20° S 22:30:35 90° NW 22:36:44 10° N
AVUM R/B 4.1 22:29:20 10° NNW 22:32:42 40° ENE 22:32:59 39° ENE
DNEPR-1 R/B 4.3 22:31:07 10° NW 22:36:19 51° WSW 22:37:55 35° S
Cosmos 2297 3.7 22:34:14 11° SSW 22:39:46 85° WNW 22:45:33 10° NNE
Gbstr 26 Del rocket 4.0 22:37:24 10° NW 22:42:17 44° NNE 22:44:31 24° ENE
CARTOSAT-1 3.4 22:41:40 51° SSE 22:42:44 89° E 22:47:04 10° NNW
Timation 1 Rocket 4.5 22:41:52 36° SSE 22:43:58 53° ESE 22:49:48 10° NE
SAR-Lupe-2 3.8 22:45:43 55° ENE 22:45:43 55° ENE 22:49:13 10° N
Meteor 2-19 Rocket 4.4 22:43:33 33° S 22:46:28 76° E 22:52:35 10° NNE
CZ-4C R/B 3.7 22:46:35 46° SSW 22:47:26 58° W 22:51:28 10° NNW
Cosmos 1339 Rocket 4.4 22:46:25 10° N 22:52:36 89° E 22:55:10 38° S
Cosmos 1536 Rocket 3.8 22:48:33 10° NNW 22:53:00 65° W 22:54:12 45° SSW
Landsat 7 4.3 22:52:47 34° SSW 22:54:29 52° W 22:59:09 10° NNW
DMSP B5D2-2 4.0 22:54:38 10° NNE 22:59:53 87° WNW 23:01:53 39° SSW
Cosmos 1536 4.5 23:04:17 22° ENE 23:04:17 22° ENE 23:06:35 10° NE
Cosmos 1821 Rocket 4.5 23:02:02 38° ESE 23:03:23 44° E 23:09:14 10° NNE
Cosmos 1400 Rocket 4.3 23:05:06 27° ENE 23:05:06 27° ENE 23:07:50 10° NNE
BREEZE-M TANK 2.9 22:58:54 10° W 23:08:07 82° N 23:09:01 51° E
BREEZE-M DEB (TANK) 3.6 23:07:29 10° NW 23:09:46 33° NNE 23:14:40 10° E
Terra 2.3 23:09:02 41° SW 23:10:13 52° W 23:14:53 10° NNW
USA 229 DEB 3.9 23:03:13 10° NW 23:10:15 66° WSW 23:12:49 41° S
USA 229 3.9 23:03:18 10° NW 23:10:21 67° WSW 23:12:55 41° S
ISS -1.8 23:07:45 10° W 23:10:49 37° NNW 23:13:53 10° NE
Cosmos 2369 Rocket 3.4 23:15:46 26° E 23:15:46 26° E 23:19:40 10° NE
Spot 4 4.2 23:16:28 49° SSW 23:17:25 59° W 23:22:15 10° NNW
Cosmos 1934 Rocket 4.3 23:17:16 43° ESE 23:18:14 46° E 23:23:59 10° NNE
Iridium 4 Rocket 4.0 23:14:01 10° N 23:19:49 58° E 23:20:57 50° SE
Cosmos 1331 Rocket 3.9 23:20:06 53° SSW 23:21:23 84° WNW 23:26:34 10° NNE
Okean 1 4.0 23:22:36 10° NNW 23:26:30 46° W 23:26:36 46° W
Cosmos 1110 Rocket 4.2 23:25:13 39° SW 23:27:05 67° WNW 23:32:16 10° NNE
NOSS 3-1 (A) 4.3 23:21:15 10° NNW 23:28:39 62° NE 23:32:31 33° ESE
Lacrosse 5 3.0 23:30:40 30° E 23:30:40 30° E 23:33:34 10° ENE
CZ-4B R/B 3.9 23:31:03 14° NE 23:31:03 14° NE 23:31:58 10° NNE
ASTEX 1 3.7 23:25:59 10° N 23:30:52 60° W 23:31:59 47° SW
ALOS 2 3.7 23:32:55 32° ENE 23:32:56 32° ENE 23:36:51 10° N
Meteor 2-21 4.4 23:32:08 55° S 23:33:35 81° E 23:39:50 10° N
Cosmos 1025 Rocket 3.1 23:31:07 10° N 23:35:16 69° NE 23:35:16 69° NE
Cosmos 1809 Rocket 4.4 23:35:17 55° S 23:36:47 86° E 23:43:01 10° N
Cosmos 1300 Rocket 4.4 23:39:23 40° WSW 23:40:05 44° WNW 23:44:21 10° N
Okean 1 Rocket 3.7 23:40:29 47° WSW 23:41:00 50° WNW 23:45:23 10° N
Cosmos 1535 Rocket 4.5 23:40:50 52° S 23:42:32 88° W 23:48:59 10° N
Okean 1-7 Rocket 4.3 23:40:58 10° NNW 23:45:15 44° W 23:45:24 44° W
H-2A R/B 3.8 23:44:17 21° WSW 23:46:01 24° W 23:50:19 10° NW
Cosmos 1354 Rocket 3.9 23:42:50 10° NNW 23:48:07 74° ENE 23:48:32 70° ESE
Cosmos 1633 3.7 23:49:34 41° NNE 23:49:34 41° NNE 23:52:05 10° N
Cosmos 1833 Rocket 3.9 23:44:17 10° NW 23:49:02 29° WSW 23:49:59 27° WSW
ATLAS 2AS CENTAUR R/B 4.1 23:42:05 10° NNW 23:49:42 40° NE 23:55:27 16° E
Cosmos 1486 Rocket 4.2 23:44:55 10° NNW 23:50:09 57° WSW 23:50:34 56° SW
Cosmos 1943 Rocket 3.7 23:56:02 22° E 23:56:02 22° E 23:59:21 10° NE
